Regional Weather Roundup
Issued by NWS

Home | Current Version | Previous Version | Graphics & Text | Print | Product List | Glossary Off
Versions: 1 2 3 4 5 6 7 8 9 10 11 12 13 14 15 16 17 18 19 20 21 22 23 24 25 26 27 28 29 30 31 32 33 34 35 36 37 38 39 40 41 42 43 44 45 46 47 48 49 50

000
ASUS43 KDMX 220501
RWRIA

WEATHER ROUNDUP FOR IOWA
NATIONAL WEATHER SERVICE DES MOINES IA
1100 PM CST TUE FEB 21 2017

NOTE: "FAIR" INDICATES FEW OR NO CLOUDS BELOW 12,000 FEET WITH NO
SIGNIFICANT WEATHER AND/OR OBSTRUCTIONS TO VISIBILITY.

* - THESE STATIONS ARE NOT NWS STATIONS...THUS NOT UNDER NWS
QUALITY CONTROL.  THEY ALSO DO NOT REPORT WEATHER SUCH
AS PRECIPITATION OR FOG.

IAZ001>003-012>014-020>022-031>034-043>046-220600-
   NORTHWEST IOWA

CITY           SKY/WX    TMP DP  RH WIND       PRES   REMARKS
CARROLL *      CLEAR     52  39  62 SW18      29.74F
CHEROKEE *     PTCLDY    46  38  72 S6        29.71F
DENISON *      CLEAR     50  37  62 SW9G16    29.73F
LE MARS *      CLEAR     46  36  66 CALM      29.70S
ORANGE CITY *  CLEAR     48  37  66 S8        29.69F
SHELDON *      CLEAR     50  39  66 S12       29.67F
SIOUX CITY     CLEAR     48  37  65 S7        29.71S
SPENCER        CLEAR     47  39  74 S9        29.70F
STORM LAKE *   CLEAR     48  37  66 S12       29.72F
$$

IAZ055>058-069>071-079>083-090>094-220600-
   SOUTHWEST IOWA

CITY           SKY/WX    TMP DP  RH WIND       PRES   REMARKS
ATLANTIC *     CLEAR     46  37  71 S9        29.78F
CLARINDA *     CLEAR     46  37  71 S7        29.84S
COUNCIL BLFS * CLEAR     57  36  44 SW16      29.77F
CRESTON *      CLEAR     46  34  61 S12       29.83F
HARLAN  *      CLEAR     46  39  76 S8        29.79F
LAMONI         CLEAR     51  34  52 S12       29.83F
RED OAK *      CLEAR     46  37  71 CALM      29.80F
SHENANDOAH *   PTCLDY    52  36  54 S7        29.81F
$$

IAZ047>049-059>061-072>074-084-220600-
   CENTRAL IOWA

CITY           SKY/WX    TMP DP  RH WIND       PRES   REMARKS
AMES           CLEAR     50  37  61 S7        29.78S
ANKENY *       CLEAR     54  34  47 S8        29.80F
BOONE *        CLEAR     52  36  54 S9        29.76F
CHARITON *     CLEAR     48  34  57 S10       29.82F
DES MOINES     CLEAR     51  33  50 S9        29.80F
GRINNELL*      CLEAR     46  35  63 S8        29.82F
KNOXVILLE *    CLEAR     52  32  46 S8        29.80F
MARSHALLTOWN   CLEAR     45  36  70 SE8       29.78F
NEWTON *       PTCLDY    50  36  57 S12       29.79F
PELLA *        CLEAR     50  33  52 SW7       29.82F
PERRY *          N/A     45  39  80 S10       29.77F
$$

IAZ004>006-015-016-023>025-035-036-220600-
   NORTH CENTRAL IOWA

CITY           SKY/WX    TMP DP  RH WIND       PRES   REMARKS
ALGONA *       CLEAR     46  41  81 S13       29.71F
CLARION *      CLEAR     43  41  93 S10       29.74F
ESTHERVILLE    CLEAR     40  38  93 CALM      29.70F
FORT DODGE *   CLEAR     46  37  71 S10       29.74F
MASON CITY     CLEAR     42  37  82 S9        29.74F
FOREST CITY *    N/A     43  37  81 S5        29.73F
WEBSTER CITY * CLEAR     48  39  71 S14       29.73F
IOWA FALLS *     N/A     45  37  72 S13       29.77F
$$

IAZ007>011-017>019-026>030-037>042-050>054-066-220600-
   NORTHEAST IOWA

CITY           SKY/WX    TMP DP  RH WIND       PRES   REMARKS
CEDAR RAPIDS   CLEAR     47  39  74 S5        29.82F
CHARLES CITY * CLEAR     46  41  81 S12       29.76F
CLINTON *      CLEAR     46  42  86 S5        29.85S
DECORAH *      CLEAR     50  37  62 S9G16     29.77S
DUBUQUE        CLEAR     42  37  82 S7        29.82F
MONTICELLO *   CLEAR     43  37  81 CALM      29.82F
OELWEIN *      PTCLDY    43  37  81 S10       29.80F
WATERLOO       CLEAR     47  37  68 S10       29.78F
$$

IAZ064-065-067-068-078-220600-
   EAST CENTRAL IOWA

CITY           SKY/WX    TMP DP  RH WIND       PRES   REMARKS
DAVENPORT      CLEAR     47  42  83 S6        29.85S
IOWA CITY      CLEAR     43  38  82 CALM      29.85S
MUSCATINE *    CLEAR     43  39  87 CALM      29.84F
QUAD CITIES    CLEAR     47  43  86 CALM      29.84S
$$

IAZ062-063-075>077-085>089-095>099-220600-
   SOUTHEAST IOWA

CITY           SKY/WX    TMP DP  RH WIND       PRES   REMARKS
BURLINGTON     FOG       51  51 100 S5        29.85S VSB 1/4
FAIRFIELD *    CLEAR     52  48  87 S9        29.83F
KEOKUK *       CLEAR     55  54  94 S7        29.85F FOG
OTTUMWA        CLEAR     48  35  60 S9        29.82F
WASHINGTON *   CLEAR     50  48  93 S8        29.85S
$$

ABBREVIATIONS USED IN REMARKS
   TC - TEMPERATURES IN CELSIUS
  WCI - WIND CHILL INDEX
   HX - HEAT INDEX
  VSB - VISIBILITY
$$




USA.gov is the U.S. government's official web portal to all federal, state and local government web resources and services.